METEOR 1-19

导读 | 豆包AI

METEOR 1-19是苏联(CIS独联体继承前苏联)于1974年10月28日发射的第一代极轨气象卫星,属于"流星"(Meteor)系列卫星。该卫星运行在近极轨道,轨道周期约102分钟,轨道倾角约81.2°,主要承担全球气象观测任务,获取大气云层、温湿度分布等数据,为气象预报和气候研究提供支撑,是前苏联早期气象卫星组网的重要组成卫星。

基本信息
目录编号:
7490
目录名称:
METEOR 1-19
国际标识:
1974-083A
轨道中心:
EARTH
卫星名称:
METEOR 1-19
卫星全名:
--
卫星状态:
在轨 (已飞行18766 天)
发射日期:
1974-10-28 UTC
国别 :
俄罗斯(独联体) (CIS)
星等 :
--
轨道信息
数据来源 国际轨道数据 AOE轨道数据
星历时间 2026-03-15T04:32:33+0800
13小时前
查看轨道信息
2026-03-14T15:00:00+0800
1天前
查看轨道信息
半长轴 7235.608km 7235.607km
偏心率 0.0030326 0.0030313
轨道倾角 81.187° 81.188°
近地点辐角 349.691° 351.625°
升交点赤经 230.325° 230.878°
平近点角 10.364° 24.674°
近地点 835.528km 835.536km
远地点 879.414km 879.404km
周期 102.087分钟 102.087分钟
每日圈数 14.105559 14.105562
详细信息
使用方式:
暂无
2D轨道图
3D轨道图
轨道高度分析图
轨道倾角分析图
轨道综合分析图
查看轨道综合分析图